Flag for Germany Weather past 2 weeks in Saarbrücken, Saarland, Germany

48 °F

Passing clouds.

Feels Like: 41 °F
Forecast: 49 / 52 °F
Wind: 21 mph from West

Location: Saarbruecken / Ensheim

Current Time: Dec 1, 2015 at 12:34:59 AM

Latest Report: Nov 30, 2015 at 11:20 PM

Visibility: 4 mi

Pressure: 30.15 "Hg

Humidity: 87%

Dew point: 45 °F

Location of SaarbrückenLocation

Historic Weather in Saarbrücken — Graph


Saarbrücken temperature yesterday

Maximum temperature yesterday: 50 °F (at 12:50 AM)
Minimum temperature yesterday: 46 °F (at 8:20 AM)
Average temperature yesterday: 49 °F

Past Weeks' High & Low Weather Summary

High57 °F (Nov 18, 1:20 AM)100% (Nov 17, 9:20 PM)30.27 "Hg (Nov 17, 9:20 PM)
Low25 °F (Nov 27, 5:50 AM)67% (Nov 18, 7:20 AM)29.42 "Hg (Nov 21, 9:50 AM)
Average41 °F90%29.96 "Hg
* Reported Nov 15 11:20 PM — Nov 30 11:20 PM, Saarbrücken, Weather by CustomWeather, © 2015

Note: Actual official high and low records may vary slightly from our data, if they occured in-between our weather recording intervals... More about our weather records


Saarbrücken weather history for previous 24 hours

Time TempWeatherWind HumidityBarometerVisibility
11:20 PM
Mon, Nov 30
48 °FPassing clouds.21 mph87%30.15 "Hg4 mi
10:50 PM48 °FPassing clouds.23 mph87%30.15 "HgN/A
10:20 PM50 °FPassing clouds.24 mph76%30.15 "HgN/A
9:50 PM50 °FPassing clouds.26 mph76%30.15 "HgN/A
9:20 PM50 °FPassing clouds.28 mph76%30.15 "HgN/A
8:50 PM50 °FPartly cloudy.26 mph76%30.12 "HgN/A
8:20 PM50 °FPassing clouds.23 mph76%30.12 "HgN/A
7:50 PM50 °FPassing clouds.23 mph76%30.12 "HgN/A
7:20 PM50 °FPassing clouds.24 mph76%30.12 "HgN/A
6:50 PM50 °FPartly cloudy.24 mph76%30.15 "HgN/A
6:20 PM48 °FPassing clouds.22 mph82%30.15 "HgN/A
5:50 PM48 °FPartly cloudy.22 mph87%30.15 "HgN/A
5:20 PM48 °FPassing clouds.22 mph87%30.15 "HgN/A
4:50 PM48 °FPassing clouds.20 mph87%30.15 "HgN/A
4:20 PM48 °FPartly sunny.21 mph87%30.15 "HgN/A
3:50 PM48 °FSprinkles. Partly sunny.22 mph82%30.15 "Hg4 mi
3:20 PM50 °FBroken clouds.24 mph76%30.15 "HgN/A
2:50 PM50 °FSprinkles. Partly sunny.22 mph76%30.18 "Hg4 mi
2:20 PM50 °FPartly sunny.21 mph76%30.18 "HgN/A
1:50 PM50 °FLight rain. Partly sunny.21 mph76%30.18 "HgN/A
1:20 PM50 °FPartly sunny.21 mph82%30.18 "HgN/A
12:50 PM48 °FPartly sunny.21 mph87%30.21 "HgN/A
12:20 PM48 °FPartly sunny.20 mph87%30.21 "HgN/A
11:50 AM48 °FPartly sunny.24 mph94%30.21 "HgN/A
11:20 AM46 °FLight rain. Fog.23 mph100%30.21 "Hg2 mi
10:50 AM46 °FLight rain. Fog.21 mph100%30.21 "Hg2 mi
10:20 AM46 °FLight rain. Broken clouds.18 mph100%30.21 "Hg4 mi
9:50 AM46 °FRain. Fog.17 mph93%30.21 "Hg3 mi
9:20 AM46 °FLight rain. Broken clouds.17 mph93%30.21 "Hg4 mi
8:20 AM46 °FLight rain. Partly sunny.20 mph93%30.21 "HgN/A
7:50 AM48 °FLight rain. Passing clouds.21 mph87%30.21 "HgN/A
7:20 AM48 °FLight rain. Passing clouds.24 mph82%30.18 "HgN/A
6:50 AM50 °FPassing clouds.23 mph76%30.18 "HgN/A
6:20 AM50 °FPassing clouds.25 mph76%30.15 "HgN/A
5:50 AM50 °FPassing clouds.25 mph76%30.15 "HgN/A
5:20 AM50 °FLight rain. Passing clouds.24 mph76%30.15 "HgN/A
4:50 AM50 °FPassing clouds.22 mph76%30.15 "HgN/A
4:20 AM50 °FPassing clouds.22 mph76%30.12 "HgN/A
3:50 AM50 °FPassing clouds.22 mph76%30.12 "HgN/A
3:20 AM50 °FOvercast.24 mph76%30.12 "HgN/A
2:50 AM50 °FOvercast.23 mph71%30.12 "HgN/A
2:20 AM50 °FOvercast.23 mph71%30.12 "HgN/A
1:20 AM50 °FPassing clouds.28 mph71%30.12 "HgN/A
12:50 AM50 °FPassing clouds.29 mph71%30.12 "HgN/A
Weather by CustomWeather, © 2015

See weather overviewHow to use our weather pages